Location: Venise Bay
(45.0825°N, 73.1481°W)
Time: 18:02:57
(UTC-05:00)

Tiangong - Visible Passes

Search period start: 26 January 2022 00:00
Search period end: 05 February 2022 00:00
Orbit: 382 x 387 km, 41.5° (Epoch: 26 January)

Date Brightness Start Highest point End Pass type
(mag) Time Alt. Az. Time Alt. Az. Time Alt. Az.
26 Jan 3.8 18:57:40 10° SSW 18:58:15 13° S 18:58:15 13° S visible
27 Jan 3.6 17:59:14 10° S 18:00:18 11° SSE 18:01:21 10° SE visible
27 Jan 4.4 19:33:40 10° SW 19:33:44 10° SW 19:33:44 10° SW visible
28 Jan 2.6 18:34:16 10° SW 18:36:54 24° SSE 18:36:55 24° SSE visible
29 Jan 3.2 17:35:06 10° SSW 17:37:17 17° SSE 17:39:27 10° ESE visible
29 Jan 3.2 19:10:40 10° WSW 19:12:16 24° SW 19:12:16 24° SW visible
30 Jan 2.3 18:11:03 10° SW 18:13:56 32° SSE 18:15:21 21° ESE visible
30 Jan 4.6 19:47:26 10° WSW 19:47:33 11° WSW 19:47:33 11° WSW visible
31 Jan 1.8 18:47:39 10° WSW 18:50:36 42° S 18:50:36 42° S visible
01 Feb 2.1 17:47:54 10° WSW 17:50:53 38° S 17:53:37 12° ESE visible
01 Feb 3.6 19:24:28 10° WSW 19:25:49 21° WSW 19:25:49 21° WSW visible
02 Feb 1.9 18:24:36 10° WSW 18:27:36 42° S 18:28:51 27° SE visible
03 Feb 2.6 19:01:26 10° WSW 19:04:06 29° SSW 19:04:06 29° SSW visible
04 Feb 2.3 18:01:28 10° WSW 18:04:26 37° S 18:07:11 11° ESE visible
04 Feb 4.2 19:38:46 10° WSW 19:39:23 12° SW 19:39:23 12° SW visible
